Location: Luxembourg
(49.6117°N, 6.1300°E)
Time: 19:09:58
(UTC+01:00)

ISS - Visible Passes

Search period start: 11 December 2025 00:00
Search period end: 21 December 2025 00:00
Orbit: 416 x 420 km, 51.6° (Epoch: 11 December)

Date Brightness Start Highest point End Pass type
(mag) Time Alt. Az. Time Alt. Az. Time Alt. Az.
11 Dec 0.0 07:15:19 10° SSE 07:16:03 11° SE 07:16:47 10° ESE visible
13 Dec -1.2 07:13:47 10° SSW 07:16:32 23° SE 07:19:17 10° E visible
14 Dec -0.8 06:26:36 10° S 06:28:43 16° SE 06:30:51 10° E visible
15 Dec -0.4 05:40:30 10° SE 05:40:56 10° SE 05:41:21 10° SE visible
15 Dec -2.7 07:13:48 10° SW 07:17:03 47° SSE 07:20:19 10° ENE visible
16 Dec -2.1 06:26:39 14° SSW 06:29:05 33° SSE 06:32:09 10° E visible
17 Dec -1.5 05:41:11 22° SE 05:41:11 22° SE 05:43:51 10° E visible
17 Dec -3.7 07:14:13 10° WSW 07:17:36 86° SSE 07:20:59 10° ENE visible
18 Dec -3.5 06:28:26 39° SW 06:29:29 65° SSE 06:32:51 10° ENE visible
19 Dec -1.9 05:42:33 31° E 05:42:33 31° E 05:44:39 10° ENE visible
19 Dec -3.7 07:15:29 15° W 07:18:07 66° N 07:21:30 10° ENE visible
20 Dec -3.9 06:29:26 62° W 06:29:54 77° NNW 06:33:17 10° ENE visible
